Belize, Belize

7:43 AM CST on October 17, 2017 (GMT -0600)
Philip S W Goldson International

Weather History for MZBZ - February, 2013

Change the Weather History Date:

Monday, February 25, 2013

  Actual Average Record
Temperature  
Mean Temperature 82 °F -  
Max Temperature 87 °F 85 °F 95 °F (2004)
Min Temperature 77 °F - 64 °F (2016)
Cooling Degree Days 17    
Growing Degree Days 32 (Base 50)    
Moisture  
Dew Point 75 °F    
Average Humidity 77    
Maximum Humidity 89    
Minimum Humidity 65    
Precipitation  
Precipitation 0.00 in 0.08 in - ()
Sea Level Pressure  
Sea Level Pressure 29.70 in    
Wind  
Wind Speed 6 mph ()    
Max Wind Speed 9 mph    
Max Gust Speed -    
Visibility 8.6 miles    
Events      
Averages and records for this station are not official NWS values.
T = Trace of Precipitation, MM = Missing Value Source: Averaged Metar Reports

Daily Weather History Graph

Daily Weather History Graph

Search for Another Location

Airport or City:

Trip Planner

Search our weather history database for the weather conditions in past years. The results will help you decide how hot, cold, wet, or windy it might be!

Date:

Astronomy

Feb. 25, 2013 Rise Set
Actual Time 6:14 AM CST 5:58 PM CST
Civil Twilight 5:52 AM CST 6:20 PM CST
Nautical Twilight 5:26 AM CST 6:45 PM CST
Astronomical Twilight 5:01 AM CST 7:11 PM CST
Moon 6:01 PM CST (2/25) 5:49 AM CST (2/25)
Length of Visible Light 12h 28m
Length of Day
11h 44m
Full, 100% of the Moon is Illuminated
Feb 25
Full
Feb 25
Full
Mar 4
Last Quarter
Mar 11
New
Mar 19
First Quarter

Hourly Weather History & Observations

Time (CST) Temp. Heat Index Dew Point Humidity Pressure Visibility Wind Dir Wind Speed Gust Speed Precip Events Conditions
12:00 AM 79 °F - 74 °F 81% 29.83 in 9 mi ESE 5.8 mph - -   Haze
3:00 AM 79 °F - 74 °F 82% 29.74 in 9 mi SE 6.9 mph - -   Haze
5:00 AM 78.8 °F - 73.4 °F 83% 29.71 in 6.2 mi SE 5.8 mph - N/A   Scattered Clouds
6:00 AM 79 °F - 74 °F 81% 29.74 in 12 mi ESE 4.6 mph - -   Partly Cloudy
6:00 AM 78.8 °F - 75.2 °F 89% 29.71 in 6.2 mi ESE 4.6 mph - N/A   Scattered Clouds
7:00 AM 78.8 °F - 75.2 °F 89% 29.74 in 6.2 mi ESE 3.5 mph - N/A   Scattered Clouds
8:00 AM 80.6 °F 86.2 °F 75.2 °F 84% 29.74 in 6.2 mi ESE 5.8 mph - N/A   Scattered Clouds
9:00 AM 84 °F - 75 °F 68% 29.76 in 12 mi SE 5.8 mph - -   Partly Cloudy
9:00 AM 84.2 °F 92.3 °F 75.2 °F 74% 29.76 in 6.2 mi SE 5.8 mph - N/A   Scattered Clouds
10:00 AM 84.2 °F 92.3 °F 75.2 °F 74% 29.75 in 6.2 mi SE 5.8 mph - N/A   Partly Cloudy
11:00 AM 84.2 °F 92.3 °F 75.2 °F 74% 29.73 in 6.2 mi East 9.2 mph - N/A   Partly Cloudy
12:00 PM 87 °F - 77 °F 65% 29.70 in 16 mi East 9.2 mph - -   Scattered Clouds
12:00 PM 87.8 °F 99.7 °F 77.0 °F 70% 29.69 in 6.2 mi East 9.2 mph - N/A   Partly Cloudy
1:00 PM 86.0 °F 95.1 °F 75.2 °F 70% 29.67 in 6.2 mi ESE 8.1 mph - N/A   Partly Cloudy
2:00 PM 86.0 °F 95.1 °F 75.2 °F 70% 29.65 in 6.2 mi SSE 8.1 mph - N/A   Partly Cloudy
3:00 PM 85 °F - 77 °F 71% 29.63 in 16 mi SE 6.9 mph - -   Scattered Clouds
3:00 PM 86.0 °F 96.9 °F 77.0 °F 74% 29.63 in 6.2 mi SE 6.9 mph - N/A   Partly Cloudy
4:00 PM 84.2 °F 92.3 °F 75.2 °F 74% 29.62 in 6.2 mi SE 8.1 mph - N/A   Partly Cloudy
5:00 PM 82.4 °F 89.5 °F 75.2 °F 79% 29.63 in - ESE 6.9 mph - N/A   Clear
6:00 PM 80 °F - 74 °F 76% 29.64 in 12 mi ESE 5.8 mph - -   Clear
6:00 PM 80.6 °F 85.4 °F 73.4 °F 79% 29.63 in - ESE 5.8 mph - N/A   Clear
9:00 PM 78 °F - 74 °F 85% 29.71 in 12 mi ESE 3.5 mph - -   Clear